PILOTS ONLINE: 247    ATC ONLINE: 25

EGHH - Bournemouth Airport

Location

IATA BOH
City Bournemouth
Country  United Kingdom
Latitude 50° 46' 47" N
Longitude 1° 50' 33" W
Elevation 38 ft
Type Large Airport

Runways

08/26 7451 ft / 151 ft

Weather

METAR
2014/07/29 08:20
EGHH 290820Z 34007KT 300V040 CAVOK 21/14 Q1017
TAF
2013/12/01 21:21
TAF TAF EGHH 010016Z 3021/0106 CNL

Outbound flights

Inbound flights